Time,TemperatureF,DewpointF,PressureIn,WindDirection,WindDirectionDegrees,WindSpeedMPH,WindSpeedGustMPH,Humidity,HourlyPrecipIn,Conditions,Clouds,dailyrainin,SoftwareType,DateUTC
2013-04-14 00:00:00,50.3,39.8,29.95,NE,36,0.0,7.0,67,0.00,,,0.00,Wunderground v.1.15,2013-04-14 04:00:00,
2013-04-14 00:02:00,50.5,39.6,29.95,NE,34,0.0,4.0,66,0.00,,,0.00,Wunderground v.1.15,2013-04-14 04:02:00,
2013-04-14 00:03:00,50.6,39.7,29.96,NE,34,0.0,4.0,66,0.00,,,0.00,Wunderground v.1.15,2013-04-14 04:03:00,
2013-04-14 00:08:00,50.6,38.5,29.96,NNE,33,0.0,4.0,63,0.00,,,0.00,Wunderground v.1.15,2013-04-14 04:08:00,
2013-04-14 00:13:00,50.5,38.4,29.96,NNE,33,0.0,1.0,63,0.00,,,0.00,Wunderground v.1.15,2013-04-14 04:13:00,
2013-04-14 00:18:00,50.3,39.0,29.96,NNE,33,0.0,1.0,65,0.00,,,0.00,Wunderground v.1.15,2013-04-14 04:18:00,
2013-04-14 00:24:00,49.6,38.7,29.96,NNE,33,0.0,0.0,66,0.00,,,0.00,Wunderground v.1.15,2013-04-14 04:24:00,
2013-04-14 00:30:00,48.9,38.4,29.96,NNE,33,0.0,0.0,67,0.00,,,0.00,Wunderground v.1.15,2013-04-14 04:30:00,
2013-04-14 00:35:00,48.5,38.8,29.97,NNE,33,0.0,0.0,69,0.00,,,0.00,Wunderground v.1.15,2013-04-14 04:35:00,
2013-04-14 00:41:00,47.8,38.1,29.96,NNE,33,1.0,2.0,69,0.00,,,0.00,Wunderground v.1.15,2013-04-14 04:41:00,
2013-04-14 00:46:00,47.3,38.4,29.97,NNE,33,0.0,2.0,71,0.00,,,0.00,Wunderground v.1.15,2013-04-14 04:46:00,
2013-04-14 00:52:00,46.7,38.1,29.97,NNE,33,0.0,0.0,72,0.00,,,0.00,Wunderground v.1.15,2013-04-14 04:52:00,
2013-04-14 00:57:00,46.3,37.8,29.98,NNE,33,0.0,0.0,72,0.00,,,0.00,Wunderground v.1.15,2013-04-14 04:57:00,
2013-04-14 01:02:00,45.8,38.7,29.98,NNE,33,0.0,0.0,76,0.00,,,0.00,Wunderground v.1.15,2013-04-14 05:02:00,
2013-04-14 01:08:00,45.0,38.2,29.98,NNE,33,0.0,0.0,77,0.00,,,0.00,Wunderground v.1.15,2013-04-14 05:08:00,
2013-04-14 01:14:00,44.7,37.6,29.98,NNE,33,0.0,0.0,76,0.00,,,0.00,Wunderground v.1.15,2013-04-14 05:14:00,
2013-04-14 01:19:00,44.5,38.1,29.98,NNE,33,0.0,0.0,78,0.00,,,0.00,Wunderground v.1.15,2013-04-14 05:19:00,
2013-04-14 01:25:00,44.2,38.1,29.99,NNE,33,0.0,0.0,79,0.00,,,0.00,Wunderground v.1.15,2013-04-14 05:25:00,
2013-04-14 01:30:00,43.8,37.4,29.99,NNE,33,0.0,0.0,78,0.00,,,0.00,Wunderground v.1.15,2013-04-14 05:30:00,
2013-04-14 01:36:00,43.5,37.4,29.99,NNE,33,0.0,0.0,79,0.00,,,0.00,Wunderground v.1.15,2013-04-14 05:36:00,
2013-04-14 01:41:00,43.2,37.8,29.99,NNE,33,0.0,0.0,81,0.00,,,0.00,Wunderground v.1.15,2013-04-14 05:41:00,
2013-04-14 01:47:00,42.8,37.7,29.99,NNE,33,0.0,0.0,82,0.00,,,0.00,Wunderground v.1.15,2013-04-14 05:47:00,
2013-04-14 01:52:00,42.5,37.7,29.99,NNE,33,0.0,0.0,83,0.00,,,0.00,Wunderground v.1.15,2013-04-14 05:52:00,
2013-04-14 01:58:00,42.3,37.5,29.99,NNE,33,0.0,0.0,83,0.00,,,0.00,Wunderground v.1.15,2013-04-14 05:58:00,
2013-04-14 02:03:00,42.0,37.2,29.99,NNE,33,0.0,0.0,83,0.00,,,0.00,Wunderground v.1.15,2013-04-14 06:03:00,
2013-04-14 02:08:00,41.8,37.0,29.99,NNE,33,0.0,0.0,83,0.00,,,0.00,Wunderground v.1.15,2013-04-14 06:08:00,
2013-04-14 02:13:00,41.5,37.0,29.99,NNE,33,0.0,1.0,84,0.00,,,0.00,Wunderground v.1.15,2013-04-14 06:13:00,
2013-04-14 02:18:00,41.3,37.1,29.99,NNE,33,0.0,1.0,85,0.00,,,0.00,Wunderground v.1.15,2013-04-14 06:18:00,
2013-04-14 02:23:00,41.1,36.9,29.99,NNE,33,0.0,1.0,85,0.00,,,0.00,Wunderground v.1.15,2013-04-14 06:23:00,
2013-04-14 02:28:00,41.1,36.9,29.99,NNE,33,0.0,1.0,85,0.00,,,0.00,Wunderground v.1.15,2013-04-14 06:28:00,
2013-04-14 02:33:00,41.2,37.0,29.99,NNE,33,0.0,2.0,85,0.00,,,0.00,Wunderground v.1.15,2013-04-14 06:33:00,
2013-04-14 02:38:00,41.2,37.0,29.99,NNE,33,1.0,2.0,85,0.00,,,0.00,Wunderground v.1.15,2013-04-14 06:38:00,
2013-04-14 02:43:00,41.2,37.0,29.99,NNE,33,0.0,0.0,85,0.00,,,0.00,Wunderground v.1.15,2013-04-14 06:43:00,
2013-04-14 02:48:00,41.1,36.9,29.99,NNE,33,0.0,0.0,85,0.00,,,0.00,Wunderground v.1.15,2013-04-14 06:48:00,
2013-04-14 02:54:00,41.0,36.8,29.99,NNE,33,0.0,1.0,85,0.00,,,0.00,Wunderground v.1.15,2013-04-14 06:54:00,
2013-04-14 02:59:00,40.9,37.0,29.98,NNE,33,0.0,1.0,86,0.00,,,0.00,Wunderground v.1.15,2013-04-14 06:59:00,
2013-04-14 03:04:00,40.8,36.9,29.98,NNE,33,0.0,0.0,86,0.00,,,0.00,Wunderground v.1.15,2013-04-14 07:04:00,
2013-04-14 03:09:00,40.7,36.8,29.98,NNE,33,0.0,1.0,86,0.00,,,0.00,Wunderground v.1.15,2013-04-14 07:09:00,
2013-04-14 03:14:00,40.8,36.9,29.98,NNE,33,0.0,0.0,86,0.00,,,0.00,Wunderground v.1.15,2013-04-14 07:14:00,
2013-04-14 03:19:00,40.9,37.3,29.98,NNE,33,0.0,1.0,87,0.00,,,0.00,Wunderground v.1.15,2013-04-14 07:19:00,
2013-04-14 03:24:00,40.9,37.3,29.98,NNE,33,0.0,0.0,87,0.00,,,0.00,Wunderground v.1.15,2013-04-14 07:24:00,
2013-04-14 03:29:00,40.8,37.2,29.98,NNE,33,0.0,1.0,87,0.00,,,0.00,Wunderground v.1.15,2013-04-14 07:29:00,
2013-04-14 03:34:00,40.7,37.1,29.98,NNE,33,0.0,0.0,87,0.00,,,0.00,Wunderground v.1.15,2013-04-14 07:34:00,
2013-04-14 03:39:00,40.7,37.1,29.98,NNE,33,0.0,0.0,87,0.00,,,0.00,Wunderground v.1.15,2013-04-14 07:39:00,
2013-04-14 03:44:00,40.6,37.0,29.98,NNE,33,0.0,0.0,87,0.00,,,0.00,Wunderground v.1.15,2013-04-14 07:44:00,
2013-04-14 03:49:00,40.5,36.9,29.98,NNE,33,0.0,0.0,87,0.00,,,0.00,Wunderground v.1.15,2013-04-14 07:49:00,
2013-04-14 03:54:00,40.4,36.8,29.98,NNE,33,0.0,0.0,87,0.00,,,0.00,Wunderground v.1.15,2013-04-14 07:54:00,
2013-04-14 03:59:00,40.4,36.8,29.98,NNE,33,0.0,0.0,87,0.00,,,0.00,Wunderground v.1.15,2013-04-14 07:59:00,
2013-04-14 04:04:00,40.2,36.6,29.98,NNE,33,0.0,0.0,87,0.00,,,0.00,Wunderground v.1.15,2013-04-14 08:04:00,
2013-04-14 04:09:00,40.2,36.6,29.98,NNE,33,0.0,0.0,87,0.00,,,0.00,Wunderground v.1.15,2013-04-14 08:09:00,
2013-04-14 04:14:00,40.1,36.8,29.98,NNE,33,0.0,0.0,88,0.00,,,0.00,Wunderground v.1.15,2013-04-14 08:14:00,
2013-04-14 04:19:00,40.1,36.8,29.99,NNE,33,0.0,0.0,88,0.00,,,0.00,Wunderground v.1.15,2013-04-14 08:19:00,
2013-04-14 04:24:00,40.0,36.4,29.99,NNE,33,0.0,0.0,87,0.00,,,0.00,Wunderground v.1.15,2013-04-14 08:24:00,
2013-04-14 04:29:00,39.9,36.6,29.99,NNE,33,0.0,0.0,88,0.00,,,0.00,Wunderground v.1.15,2013-04-14 08:29:00,
2013-04-14 04:35:00,39.8,36.5,29.99,NNE,33,0.0,0.0,88,0.00,,,0.00,Wunderground v.1.15,2013-04-14 08:35:00,
2013-04-14 04:40:00,39.7,36.4,29.99,NNE,33,0.0,0.0,88,0.00,,,0.00,Wunderground v.1.15,2013-04-14 08:40:00,
2013-04-14 04:45:00,39.6,36.3,29.99,NNE,33,0.0,0.0,88,0.00,,,0.00,Wunderground v.1.15,2013-04-14 08:45:00,
2013-04-14 04:50:00,39.5,36.2,30.00,NNE,33,0.0,0.0,88,0.00,,,0.00,Wunderground v.1.15,2013-04-14 08:50:00,
2013-04-14 04:55:00,39.5,36.2,30.00,NNE,33,0.0,0.0,88,0.00,,,0.00,Wunderground v.1.15,2013-04-14 08:55:00,
2013-04-14 05:00:00,39.5,36.2,30.00,NNE,33,0.0,0.0,88,0.00,,,0.00,Wunderground v.1.15,2013-04-14 09:00:00,
2013-04-14 05:05:00,39.4,36.1,30.00,NNE,33,0.0,0.0,88,0.00,,,0.00,Wunderground v.1.15,2013-04-14 09:05:00,
2013-04-14 05:10:00,39.3,36.0,30.00,NNE,33,0.0,0.0,88,0.00,,,0.00,Wunderground v.1.15,2013-04-14 09:10:00,
2013-04-14 05:15:00,39.3,36.0,30.00,NNE,33,0.0,0.0,88,0.00,,,0.00,Wunderground v.1.15,2013-04-14 09:15:00,
2013-04-14 05:20:00,39.3,36.0,30.00,NNE,33,0.0,0.0,88,0.00,,,0.00,Wunderground v.1.15,2013-04-14 09:20:00,
2013-04-14 05:25:00,39.3,36.0,30.01,NNE,33,0.0,0.0,88,0.00,,,0.00,Wunderground v.1.15,2013-04-14 09:25:00,
2013-04-14 05:30:00,39.3,36.0,30.01,NNE,33,0.0,0.0,88,0.00,,,0.00,Wunderground v.1.15,2013-04-14 09:30:00,
2013-04-14 05:35:00,39.4,36.1,30.01,NNE,33,0.0,2.0,88,0.00,,,0.00,Wunderground v.1.15,2013-04-14 09:35:00,
2013-04-14 05:40:00,39.5,36.0,30.01,NNE,33,0.0,2.0,87,0.00,,,0.00,Wunderground v.1.15,2013-04-14 09:40:00,
2013-04-14 05:45:00,39.6,35.8,30.02,NNE,33,0.0,1.0,86,0.00,,,0.00,Wunderground v.1.15,2013-04-14 09:45:00,
2013-04-14 05:50:00,39.7,35.9,30.02,NNE,33,0.0,0.0,86,0.00,,,0.00,Wunderground v.1.15,2013-04-14 09:50:00,
2013-04-14 05:55:00,39.7,35.6,30.02,NNE,33,0.0,3.0,85,0.00,,,0.00,Wunderground v.1.15,2013-04-14 09:55:00,
2013-04-14 06:00:00,39.8,35.7,30.03,NNE,33,0.0,0.0,85,0.00,,,0.00,Wunderground v.1.15,2013-04-14 10:00:00,
2013-04-14 06:05:00,39.9,35.8,30.04,NNE,33,0.0,2.0,85,0.00,,,0.00,Wunderground v.1.15,2013-04-14 10:05:00,
2013-04-14 06:10:00,39.9,35.5,30.04,NNE,33,0.0,0.0,84,0.00,,,0.00,Wunderground v.1.15,2013-04-14 10:10:00,
2013-04-14 06:15:00,39.8,35.4,30.05,NNE,33,0.0,0.0,84,0.00,,,0.00,Wunderground v.1.15,2013-04-14 10:15:00,
2013-04-14 06:20:00,39.7,35.9,30.05,NNE,33,0.0,0.0,86,0.00,,,0.00,Wunderground v.1.15,2013-04-14 10:20:00,
2013-04-14 06:25:00,39.7,35.9,30.05,NNE,33,0.0,3.0,86,0.00,,,0.00,Wunderground v.1.15,2013-04-14 10:25:00,
2013-04-14 06:30:00,39.6,35.8,30.06,NNE,33,0.0,0.0,86,0.00,,,0.00,Wunderground v.1.15,2013-04-14 10:30:00,
2013-04-14 06:35:00,39.7,35.9,30.06,NNE,33,2.0,2.0,86,0.00,,,0.00,Wunderground v.1.15,2013-04-14 10:35:00,
2013-04-14 06:40:00,39.9,35.8,30.06,NNE,33,0.0,0.0,85,0.00,,,0.00,Wunderground v.1.15,2013-04-14 10:40:00,
2013-04-14 06:45:00,40.0,35.9,30.07,NNE,33,0.0,2.0,85,0.00,,,0.00,Wunderground v.1.15,2013-04-14 10:45:00,
2013-04-14 06:50:00,40.1,36.0,30.07,NNE,33,0.0,0.0,85,0.00,,,0.00,Wunderground v.1.15,2013-04-14 10:50:00,
2013-04-14 06:55:00,40.2,36.1,30.07,NNE,33,0.0,0.0,85,0.00,,,0.00,Wunderground v.1.15,2013-04-14 10:55:00,
2013-04-14 07:00:00,40.3,36.1,30.08,NNE,33,0.0,0.0,85,0.00,,,0.00,Wunderground v.1.15,2013-04-14 11:00:00,
2013-04-14 07:05:00,40.3,36.1,30.08,NNE,33,4.0,4.0,85,0.00,,,0.00,Wunderground v.1.15,2013-04-14 11:05:00,
2013-04-14 07:11:00,40.6,36.1,30.08,NNE,23,1.0,1.0,84,0.00,,,0.00,Wunderground v.1.15,2013-04-14 11:11:00,
2013-04-14 07:16:00,40.9,36.4,30.09,NNE,23,0.0,1.0,84,0.00,,,0.00,Wunderground v.1.15,2013-04-14 11:16:00,
2013-04-14 07:21:00,41.1,36.3,30.09,NNE,22,5.0,5.0,83,0.00,,,0.00,Wunderground v.1.15,2013-04-14 11:21:00,
2013-04-14 07:26:00,41.2,36.7,30.09,NNE,22,2.0,5.0,84,0.00,,,0.00,Wunderground v.1.15,2013-04-14 11:26:00,
2013-04-14 07:31:00,41.4,36.9,30.09,NNE,22,0.0,1.0,84,0.00,,,0.00,Wunderground v.1.15,2013-04-14 11:31:00,
2013-04-14 07:36:00,41.6,36.8,30.10,NNE,22,0.0,4.0,83,0.00,,,0.00,Wunderground v.1.15,2013-04-14 11:36:00,
2013-04-14 07:41:00,41.9,37.1,30.10,NNE,19,0.0,4.0,83,0.00,,,0.00,Wunderground v.1.15,2013-04-14 11:41:00,
2013-04-14 07:46:00,42.2,37.7,30.10,NNE,19,2.0,4.0,84,0.00,,,0.00,Wunderground v.1.15,2013-04-14 11:46:00,
2013-04-14 07:51:00,42.9,38.1,30.10,NNE,19,0.0,3.0,83,0.00,,,0.00,Wunderground v.1.15,2013-04-14 11:51:00,
2013-04-14 07:56:00,43.8,38.7,30.10,NNE,19,0.0,3.0,82,0.00,,,0.00,Wunderground v.1.15,2013-04-14 11:56:00,
2013-04-14 08:01:00,44.9,39.1,30.11,North,360,0.0,3.0,80,0.00,,,0.00,Wunderground v.1.15,2013-04-14 12:01:00,
2013-04-14 08:06:00,45.6,39.1,30.11,North,355,0.0,7.0,78,0.00,,,0.00,Wunderground v.1.15,2013-04-14 12:06:00,
2013-04-14 08:11:00,46.3,39.5,30.11,North,355,2.0,4.0,77,0.00,,,0.00,Wunderground v.1.15,2013-04-14 12:11:00,
2013-04-14 08:16:00,47.0,39.8,30.12,NNW,344,2.0,7.0,76,0.00,,,0.00,Wunderground v.1.15,2013-04-14 12:16:00,
2013-04-14 08:21:00,47.7,39.8,30.11,NNW,343,4.0,4.0,74,0.00,,,0.00,Wunderground v.1.15,2013-04-14 12:21:00,
2013-04-14 08:26:00,48.4,40.8,30.11,NNW,343,2.0,4.0,75,0.00,,,0.00,Wunderground v.1.15,2013-04-14 12:26:00,
2013-04-14 08:31:00,49.1,40.8,30.11,NNW,343,0.0,1.0,73,0.00,,,0.00,Wunderground v.1.15,2013-04-14 12:31:00,
2013-04-14 08:36:00,49.6,40.6,30.11,NNW,343,1.0,4.0,71,0.00,,,0.00,Wunderground v.1.15,2013-04-14 12:36:00,
2013-04-14 08:41:00,50.1,41.8,30.11,NNW,343,3.0,5.0,73,0.00,,,0.00,Wunderground v.1.15,2013-04-14 12:41:00,
2013-04-14 08:46:00,50.8,41.7,30.11,NNW,343,0.0,5.0,71,0.00,,,0.00,Wunderground v.1.15,2013-04-14 12:46:00,
2013-04-14 08:51:00,51.4,40.8,30.11,NNW,343,0.0,2.0,67,0.00,,,0.00,Wunderground v.1.15,2013-04-14 12:51:00,
2013-04-14 08:56:00,51.9,42.4,30.11,NNW,343,0.0,6.0,70,0.00,,,0.00,Wunderground v.1.15,2013-04-14 12:56:00,
2013-04-14 09:02:00,52.4,42.1,30.11,NNW,343,1.0,4.0,68,0.00,,,0.00,Wunderground v.1.15,2013-04-14 13:02:00,
2013-04-14 09:07:00,52.9,42.2,30.12,NNW,342,0.0,5.0,67,0.00,,,0.00,Wunderground v.1.15,2013-04-14 13:07:00,
2013-04-14 09:12:00,53.4,41.9,30.11,NW,313,2.0,11.0,65,0.00,,,0.00,Wunderground v.1.15,2013-04-14 13:12:00,
2013-04-14 09:16:00,53.6,41.7,30.11,NW,313,6.0,11.0,64,0.00,,,0.00,Wunderground v.1.15,2013-04-14 13:16:00,
2013-04-14 09:22:00,53.7,41.4,30.12,NW,313,2.0,4.0,63,0.00,,,0.00,Wunderground v.1.15,2013-04-14 13:22:00,
2013-04-14 09:27:00,54.0,41.3,30.13,NW,312,0.0,7.0,62,0.00,,,0.00,Wunderground v.1.15,2013-04-14 13:27:00,
2013-04-14 09:32:00,53.8,41.1,30.13,NW,311,3.0,6.0,62,0.00,,,0.00,Wunderground v.1.15,2013-04-14 13:32:00,
2013-04-14 09:37:00,53.8,41.5,30.14,NW,304,2.0,6.0,63,0.00,,,0.00,Wunderground v.1.15,2013-04-14 13:37:00,
2013-04-14 09:42:00,53.7,41.0,30.14,WNW,286,0.0,9.0,62,0.00,,,0.00,Wunderground v.1.15,2013-04-14 13:42:00,
2013-04-14 09:47:00,53.9,42.0,30.14,WNW,286,0.0,11.0,64,0.00,,,0.00,Wunderground v.1.15,2013-04-14 13:47:00,
2013-04-14 09:52:00,54.2,42.3,30.14,WNW,284,4.0,5.0,64,0.00,,,0.00,Wunderground v.1.15,2013-04-14 13:52:00,
2013-04-14 09:57:00,54.5,41.3,30.14,WNW,296,7.0,13.0,61,0.00,,,0.00,Wunderground v.1.15,2013-04-14 13:57:00,
2013-04-14 10:02:00,54.8,42.0,30.14,WNW,290,0.0,5.0,62,0.00,,,0.00,Wunderground v.1.15,2013-04-14 14:02:00,
2013-04-14 10:07:00,54.9,41.3,30.14,WNW,294,3.0,10.0,60,0.00,,,0.00,Wunderground v.1.15,2013-04-14 14:07:00,
2013-04-14 10:12:00,54.8,41.2,30.14,WNW,296,3.0,6.0,60,0.00,,,0.00,Wunderground v.1.15,2013-04-14 14:12:00,
2013-04-14 10:17:00,55.0,42.6,30.14,WNW,295,4.0,10.0,63,0.00,,,0.00,Wunderground v.1.15,2013-04-14 14:17:00,
2013-04-14 10:22:00,55.4,42.2,30.14,WNW,294,2.0,7.0,61,0.00,,,0.00,Wunderground v.1.15,2013-04-14 14:22:00,
2013-04-14 10:27:00,55.8,42.1,30.14,WNW,296,2.0,7.0,60,0.00,,,0.00,Wunderground v.1.15,2013-04-14 14:27:00,
2013-04-14 10:32:00,55.9,41.8,30.14,WNW,288,6.0,8.0,59,0.00,,,0.00,Wunderground v.1.15,2013-04-14 14:32:00,
2013-04-14 10:38:00,55.8,41.7,30.14,WNW,290,8.0,8.0,59,0.00,,,0.00,Wunderground v.1.15,2013-04-14 14:38:00,
2013-04-14 10:43:00,55.8,41.7,30.15,WNW,295,5.0,5.0,59,0.00,,,0.00,Wunderground v.1.15,2013-04-14 14:43:00,
2013-04-14 10:48:00,55.9,40.9,30.14,WNW,289,4.0,10.0,57,0.00,,,0.00,Wunderground v.1.15,2013-04-14 14:48:00,
2013-04-14 10:53:00,56.0,41.9,30.14,WNW,296,4.0,10.0,59,0.00,,,0.00,Wunderground v.1.15,2013-04-14 14:53:00,
2013-04-14 10:58:00,56.4,41.8,30.14,WNW,296,9.0,10.0,58,0.00,,,0.00,Wunderground v.1.15,2013-04-14 14:58:00,
2013-04-14 11:03:00,56.9,42.7,30.14,WNW,297,5.0,13.0,59,0.00,,,0.00,Wunderground v.1.15,2013-04-14 15:03:00,
2013-04-14 11:08:00,57.2,42.1,30.14,WNW,291,5.0,14.0,57,0.00,,,0.00,Wunderground v.1.15,2013-04-14 15:08:00,
2013-04-14 11:13:00,57.8,43.6,30.14,WNW,294,5.0,6.0,59,0.00,,,0.00,Wunderground v.1.15,2013-04-14 15:13:00,
2013-04-14 11:18:00,58.2,43.0,30.14,WNW,302,2.0,10.0,57,0.00,,,0.00,Wunderground v.1.15,2013-04-14 15:18:00,
2013-04-14 11:23:00,58.4,41.8,30.14,West,277,4.0,13.0,54,0.00,,,0.00,Wunderground v.1.15,2013-04-14 15:23:00,
2013-04-14 11:28:00,58.2,42.6,30.14,West,266,2.0,13.0,56,0.00,,,0.00,Wunderground v.1.15,2013-04-14 15:28:00,
2013-04-14 11:33:00,58.2,43.0,30.14,WNW,284,3.0,6.0,57,0.00,,,0.00,Wunderground v.1.15,2013-04-14 15:33:00,
2013-04-14 11:38:00,58.0,41.4,30.14,WNW,294,1.0,12.0,54,0.00,,,0.00,Wunderground v.1.15,2013-04-14 15:38:00,
2013-04-14 11:43:00,58.4,43.2,30.13,NW,321,5.0,10.0,57,0.00,,,0.00,Wunderground v.1.15,2013-04-14 15:43:00,
2013-04-14 11:48:00,59.0,43.8,30.13,NNW,341,1.0,10.0,57,0.00,,,0.00,Wunderground v.1.15,2013-04-14 15:48:00,
2013-04-14 11:53:00,59.5,42.8,30.13,NW,315,2.0,10.0,54,0.00,,,0.00,Wunderground v.1.15,2013-04-14 15:53:00,
2013-04-14 11:58:00,59.6,43.4,30.13,WNW,294,7.0,11.0,55,0.00,,,0.00,Wunderground v.1.15,2013-04-14 15:58:00,
2013-04-14 12:03:00,59.8,44.5,30.13,WNW,284,3.0,8.0,57,0.00,,,0.00,Wunderground v.1.15,2013-04-14 16:03:00,
2013-04-14 12:08:00,59.9,42.2,30.13,WNW,293,0.0,13.0,52,0.00,,,0.00,Wunderground v.1.15,2013-04-14 16:08:00,
2013-04-14 12:13:00,60.0,45.2,30.12,WNW,294,0.0,6.0,58,0.00,,,0.00,Wunderground v.1.15,2013-04-14 16:13:00,
2013-04-14 12:18:00,60.5,45.6,30.12,NNW,346,0.0,10.0,58,0.00,,,0.00,Wunderground v.1.15,2013-04-14 16:18:00,
2013-04-14 12:23:00,61.0,44.7,30.12,NW,306,2.0,6.0,55,0.00,,,0.00,Wunderground v.1.15,2013-04-14 16:23:00,
2013-04-14 12:28:00,61.1,44.8,30.12,NW,310,3.0,7.0,55,0.00,,,0.00,Wunderground v.1.15,2013-04-14 16:28:00,
2013-04-14 12:33:00,61.3,45.5,30.11,NW,313,2.0,7.0,56,0.00,,,0.00,Wunderground v.1.15,2013-04-14 16:33:00,
2013-04-14 12:38:00,61.4,44.6,30.12,NW,323,3.0,7.0,54,0.00,,,0.00,Wunderground v.1.15,2013-04-14 16:38:00,
2013-04-14 12:43:00,61.6,44.3,30.12,NW,313,4.0,16.0,53,0.00,,,0.00,Wunderground v.1.15,2013-04-14 16:43:00,
2013-04-14 12:48:00,61.2,43.9,30.12,WNW,291,1.0,16.0,53,0.00,,,0.00,Wunderground v.1.15,2013-04-14 16:48:00,
2013-04-14 12:53:00,61.0,43.2,30.11,WNW,299,0.0,11.0,52,0.00,,,0.00,Wunderground v.1.15,2013-04-14 16:53:00,
2013-04-14 12:58:00,60.6,44.3,30.11,WNW,290,0.0,11.0,55,0.00,,,0.00,Wunderground v.1.15,2013-04-14 16:58:00,
2013-04-14 13:03:00,60.9,43.1,30.11,NW,309,0.0,9.0,52,0.00,,,0.00,Wunderground v.1.15,2013-04-14 17:03:00,
2013-04-14 13:08:00,61.4,43.6,30.11,NW,311,0.0,9.0,52,0.00,,,0.00,Wunderground v.1.15,2013-04-14 17:08:00,
2013-04-14 13:13:00,62.0,45.2,30.11,WNW,294,1.0,12.0,54,0.00,,,0.00,Wunderground v.1.15,2013-04-14 17:13:00,
2013-04-14 13:18:00,62.4,44.5,30.11,WNW,294,0.0,12.0,52,0.00,,,0.00,Wunderground v.1.15,2013-04-14 17:18:00,
2013-04-14 13:23:00,62.2,43.8,30.10,WNW,284,1.0,8.0,51,0.00,,,0.00,Wunderground v.1.15,2013-04-14 17:23:00,
2013-04-14 13:28:00,62.2,44.9,30.10,WNW,286,1.0,9.0,53,0.00,,,0.00,Wunderground v.1.15,2013-04-14 17:28:00,
2013-04-14 13:33:00,62.5,45.1,30.10,WNW,298,4.0,7.0,53,0.00,,,0.00,Wunderground v.1.15,2013-04-14 17:33:00,
2013-04-14 13:38:00,62.9,45.0,30.10,WNW,284,5.0,12.0,52,0.00,,,0.00,Wunderground v.1.15,2013-04-14 17:38:00,
2013-04-14 13:43:00,62.6,44.7,30.10,WNW,284,4.0,6.0,52,0.00,,,0.00,Wunderground v.1.15,2013-04-14 17:43:00,
2013-04-14 13:48:00,62.4,45.5,30.09,NW,304,5.0,9.0,54,0.00,,,0.00,Wunderground v.1.15,2013-04-14 17:48:00,
2013-04-14 13:53:00,62.8,45.4,30.10,WNW,296,3.0,12.0,53,0.00,,,0.00,Wunderground v.1.15,2013-04-14 17:53:00,
2013-04-14 13:58:00,63.3,47.8,30.09,WNW,288,4.0,15.0,57,0.00,,,0.00,Wunderground v.1.15,2013-04-14 17:58:00,
2013-04-14 14:03:00,63.8,46.3,30.09,WNW,290,3.0,10.0,53,0.00,,,0.00,Wunderground v.1.15,2013-04-14 18:03:00,
2013-04-14 14:08:00,64.0,45.0,30.09,West,275,4.0,10.0,50,0.00,,,0.00,Wunderground v.1.15,2013-04-14 18:08:00,
2013-04-14 14:13:00,64.0,43.9,30.08,WNW,295,0.0,10.0,48,0.00,,,0.00,Wunderground v.1.15,2013-04-14 18:13:00,
2013-04-14 14:19:00,63.8,44.3,30.09,WNW,302,2.0,10.0,49,0.00,,,0.00,Wunderground v.1.15,2013-04-14 18:19:00,
2013-04-14 14:23:00,63.5,43.4,30.08,West,281,1.0,12.0,48,0.00,,,0.00,Wunderground v.1.15,2013-04-14 18:23:00,
2013-04-14 14:28:00,63.4,44.4,30.08,WNW,284,2.0,12.0,50,0.00,,,0.00,Wunderground v.1.15,2013-04-14 18:28:00,
2013-04-14 14:33:00,63.3,45.9,30.08,NW,310,1.0,10.0,53,0.00,,,0.00,Wunderground v.1.15,2013-04-14 18:33:00,
2013-04-14 14:38:00,63.7,45.2,30.08,WNW,303,1.0,10.0,51,0.00,,,0.00,Wunderground v.1.15,2013-04-14 18:38:00,
2013-04-14 14:43:00,63.8,46.3,30.08,WNW,297,3.0,5.0,53,0.00,,,0.00,Wunderground v.1.15,2013-04-14 18:43:00,
2013-04-14 14:48:00,63.9,45.4,30.08,WNW,286,3.0,6.0,51,0.00,,,0.00,Wunderground v.1.15,2013-04-14 18:48:00,
2013-04-14 14:54:00,63.6,44.1,30.08,WSW,244,0.0,10.0,49,0.00,,,0.00,Wunderground v.1.15,2013-04-14 18:54:00,
2013-04-14 14:59:00,63.6,45.6,30.08,WSW,254,3.0,10.0,52,0.00,,,0.00,Wunderground v.1.15,2013-04-14 18:59:00,
2013-04-14 15:04:00,63.8,44.3,30.08,WSW,255,2.0,7.0,49,0.00,,,0.00,Wunderground v.1.15,2013-04-14 19:04:00,
2013-04-14 15:09:00,63.2,44.8,30.08,WSW,240,0.0,9.0,51,0.00,,,0.00,Wunderground v.1.15,2013-04-14 19:09:00,
2013-04-14 15:14:00,63.6,47.1,30.08,West,261,0.0,9.0,55,0.00,,,0.00,Wunderground v.1.15,2013-04-14 19:14:00,
2013-04-14 15:19:00,64.1,45.1,30.09,West,272,0.0,9.0,50,0.00,,,0.00,Wunderground v.1.15,2013-04-14 19:19:00,
2013-04-14 15:24:00,64.5,47.5,30.08,West,273,2.0,6.0,54,0.00,,,0.00,Wunderground v.1.15,2013-04-14 19:24:00,
2013-04-14 15:29:00,65.0,47.9,30.08,West,273,3.0,6.0,54,0.00,,,0.00,Wunderground v.1.15,2013-04-14 19:29:00,
2013-04-14 15:34:00,65.5,47.4,30.08,West,274,2.0,6.0,52,0.00,,,0.00,Wunderground v.1.15,2013-04-14 19:34:00,
2013-04-14 15:39:00,65.8,45.6,30.08,West,274,1.0,6.0,48,0.00,,,0.00,Wunderground v.1.15,2013-04-14 19:39:00,
2013-04-14 15:44:00,65.8,48.2,30.08,West,278,5.0,6.0,53,0.00,,,0.00,Wunderground v.1.15,2013-04-14 19:44:00,
2013-04-14 15:49:00,66.1,47.4,30.08,West,280,2.0,9.0,51,0.00,,,0.00,Wunderground v.1.15,2013-04-14 19:49:00,
2013-04-14 15:54:00,65.8,47.7,30.08,WNW,287,0.0,5.0,52,0.00,,,0.00,Wunderground v.1.15,2013-04-14 19:54:00,
2013-04-14 15:59:00,65.8,46.1,30.08,WNW,287,2.0,7.0,49,0.00,,,0.00,Wunderground v.1.15,2013-04-14 19:59:00,
2013-04-14 16:04:00,66.0,45.7,30.08,WNW,296,0.0,9.0,48,0.00,,,0.00,Wunderground v.1.15,2013-04-14 20:04:00,
2013-04-14 16:09:00,65.1,44.9,30.08,WNW,286,0.0,9.0,48,0.00,,,0.00,Wunderground v.1.15,2013-04-14 20:09:00,
2013-04-14 16:14:00,64.5,45.4,30.08,WNW,286,0.0,5.0,50,0.00,,,0.00,Wunderground v.1.15,2013-04-14 20:14:00,
2013-04-14 16:19:00,64.7,44.5,30.08,WNW,286,0.0,5.0,48,0.00,,,0.00,Wunderground v.1.15,2013-04-14 20:19:00,
2013-04-14 16:24:00,64.5,42.7,30.07,WNW,286,0.0,2.0,45,0.00,,,0.00,Wunderground v.1.15,2013-04-14 20:24:00,
2013-04-14 16:29:00,64.1,45.6,30.07,WNW,286,0.0,4.0,51,0.00,,,0.00,Wunderground v.1.15,2013-04-14 20:29:00,
2013-04-14 16:34:00,64.1,44.5,30.07,WNW,286,2.0,5.0,49,0.00,,,0.00,Wunderground v.1.15,2013-04-14 20:34:00,
2013-04-14 16:39:00,63.7,44.2,30.07,WNW,286,4.0,5.0,49,0.00,,,0.00,Wunderground v.1.15,2013-04-14 20:39:00,
2013-04-14 16:44:00,63.6,42.4,30.07,WNW,286,0.0,4.0,46,0.00,,,0.00,Wunderground v.1.15,2013-04-14 20:44:00,
2013-04-14 16:50:00,63.7,44.7,30.07,WNW,286,0.0,4.0,50,0.00,,,0.00,Wunderground v.1.15,2013-04-14 20:50:00,
2013-04-14 16:55:00,63.7,43.6,30.08,WNW,286,0.0,2.0,48,0.00,,,0.00,Wunderground v.1.15,2013-04-14 20:55:00,
2013-04-14 17:00:00,63.8,43.2,30.08,WNW,286,0.0,2.0,47,0.00,,,0.00,Wunderground v.1.15,2013-04-14 21:00:00,
2013-04-14 17:05:00,64.0,42.2,30.07,WNW,286,0.0,2.0,45,0.00,,,0.00,Wunderground v.1.15,2013-04-14 21:05:00,
2013-04-14 17:10:00,64.4,43.2,30.08,WNW,286,0.0,3.0,46,0.00,,,0.00,Wunderground v.1.15,2013-04-14 21:10:00,
2013-04-14 17:15:00,64.6,43.9,30.07,WNW,286,0.0,0.0,47,0.00,,,0.00,Wunderground v.1.15,2013-04-14 21:15:00,
2013-04-14 17:20:00,64.5,43.3,30.07,WNW,286,0.0,1.0,46,0.00,,,0.00,Wunderground v.1.15,2013-04-14 21:20:00,
2013-04-14 17:25:00,64.3,43.6,30.07,WNW,286,2.0,2.0,47,0.00,,,0.00,Wunderground v.1.15,2013-04-14 21:25:00,
2013-04-14 17:30:00,64.1,44.0,30.08,WNW,286,0.0,3.0,48,0.00,,,0.00,Wunderground v.1.15,2013-04-14 21:30:00,
2013-04-14 17:35:00,63.9,43.3,30.08,WNW,286,0.0,4.0,47,0.00,,,0.00,Wunderground v.1.15,2013-04-14 21:35:00,
2013-04-14 17:40:00,63.7,44.2,30.08,WNW,286,2.0,4.0,49,0.00,,,0.00,Wunderground v.1.15,2013-04-14 21:40:00,
2013-04-14 17:45:00,63.3,43.8,30.08,West,273,2.0,7.0,49,0.00,,,0.00,Wunderground v.1.15,2013-04-14 21:45:00,
2013-04-14 17:50:00,62.8,44.4,30.08,West,273,1.0,2.0,51,0.00,,,0.00,Wunderground v.1.15,2013-04-14 21:50:00,
2013-04-14 17:55:00,62.6,43.7,30.08,West,273,1.0,4.0,50,0.00,,,0.00,Wunderground v.1.15,2013-04-14 21:55:00,
2013-04-14 18:00:00,62.5,44.6,30.08,West,273,4.0,4.0,52,0.00,,,0.00,Wunderground v.1.15,2013-04-14 22:00:00,
2013-04-14 18:05:00,62.2,42.8,30.08,West,271,2.0,5.0,49,0.00,,,0.00,Wunderground v.1.15,2013-04-14 22:05:00,
2013-04-14 18:10:00,62.1,43.7,30.08,West,271,5.0,5.0,51,0.00,,,0.00,Wunderground v.1.15,2013-04-14 22:10:00,
2013-04-14 18:15:00,62.0,42.6,30.08,West,271,1.0,5.0,49,0.00,,,0.00,Wunderground v.1.15,2013-04-14 22:15:00,
2013-04-14 18:20:00,61.9,43.6,30.08,West,271,0.0,2.0,51,0.00,,,0.00,Wunderground v.1.15,2013-04-14 22:20:00,
2013-04-14 18:25:00,61.8,45.5,30.09,West,271,2.0,4.0,55,0.00,,,0.00,Wunderground v.1.15,2013-04-14 22:25:00,
2013-04-14 18:30:00,61.5,44.2,30.09,West,271,0.0,2.0,53,0.00,,,0.00,Wunderground v.1.15,2013-04-14 22:30:00,
2013-04-14 18:35:00,61.4,45.1,30.09,West,271,0.0,3.0,55,0.00,,,0.00,Wunderground v.1.15,2013-04-14 22:35:00,
2013-04-14 18:40:00,61.2,44.4,30.09,West,271,1.0,4.0,54,0.00,,,0.00,Wunderground v.1.15,2013-04-14 22:40:00,
2013-04-14 18:45:00,60.9,44.1,30.10,West,268,4.0,4.0,54,0.00,,,0.00,Wunderground v.1.15,2013-04-14 22:45:00,
2013-04-14 18:50:00,60.7,43.0,30.10,WSW,253,3.0,4.0,52,0.00,,,0.00,Wunderground v.1.15,2013-04-14 22:50:00,
2013-04-14 18:55:00,60.6,43.4,30.10,WSW,252,2.0,4.0,53,0.00,,,0.00,Wunderground v.1.15,2013-04-14 22:55:00,
2013-04-14 19:00:00,60.5,42.8,30.09,WSW,248,0.0,2.0,52,0.00,,,0.00,Wunderground v.1.15,2013-04-14 23:00:00,
2013-04-14 19:05:00,60.4,45.1,30.09,WSW,248,0.0,3.0,57,0.00,,,0.00,Wunderground v.1.15,2013-04-14 23:05:00,
2013-04-14 19:10:00,60.0,44.7,30.09,WSW,248,1.0,1.0,57,0.00,,,0.00,Wunderground v.1.15,2013-04-14 23:10:00,
2013-04-14 19:15:00,59.6,45.2,30.09,WSW,248,0.0,1.0,59,0.00,,,0.00,Wunderground v.1.15,2013-04-14 23:15:00,
2013-04-14 19:20:00,59.0,43.3,30.09,WSW,248,0.0,0.0,56,0.00,,,0.00,Wunderground v.1.15,2013-04-14 23:20:00,
2013-04-14 19:25:00,59.0,42.4,30.09,WSW,248,0.0,3.0,54,0.00,,,0.00,Wunderground v.1.15,2013-04-14 23:25:00,
2013-04-14 19:30:00,59.0,41.9,30.09,WSW,248,1.0,5.0,53,0.00,,,0.00,Wunderground v.1.15,2013-04-14 23:30:00,
2013-04-14 19:35:00,59.0,42.8,30.10,WSW,248,3.0,5.0,55,0.00,,,0.00,Wunderground v.1.15,2013-04-14 23:35:00,
2013-04-14 19:40:00,58.9,42.8,30.10,WSW,248,0.0,1.0,55,0.00,,,0.00,Wunderground v.1.15,2013-04-14 23:40:00,
2013-04-14 19:45:00,58.7,44.0,30.09,WSW,248,1.0,3.0,58,0.00,,,0.00,Wunderground v.1.15,2013-04-14 23:45:00,
2013-04-14 19:51:00,58.2,42.6,30.10,WSW,248,2.0,2.0,56,0.00,,,0.00,Wunderground v.1.15,2013-04-14 23:51:00,
2013-04-14 19:56:00,58.0,43.3,30.10,WSW,248,1.0,4.0,58,0.00,,,0.00,Wunderground v.1.15,2013-04-14 23:56:00,
2013-04-14 20:01:00,57.9,41.8,30.09,WSW,248,1.0,2.0,55,0.00,,,0.00,Wunderground v.1.15,2013-04-15 00:01:00,
2013-04-14 20:06:00,57.9,42.3,30.09,WSW,248,0.0,4.0,56,0.00,,,0.00,Wunderground v.1.15,2013-04-15 00:06:00,
2013-04-14 20:11:00,57.9,42.8,30.09,WSW,248,0.0,1.0,57,0.00,,,0.00,Wunderground v.1.15,2013-04-15 00:11:00,
2013-04-14 20:16:00,57.7,42.6,30.09,WSW,248,0.0,2.0,57,0.00,,,0.00,Wunderground v.1.15,2013-04-15 00:16:00,
2013-04-14 20:21:00,57.5,41.9,30.09,WSW,248,0.0,2.0,56,0.00,,,0.00,Wunderground v.1.15,2013-04-15 00:21:00,
2013-04-14 20:26:00,57.4,41.4,30.09,WSW,248,0.0,3.0,55,0.00,,,0.00,Wunderground v.1.15,2013-04-15 00:26:00,
2013-04-14 20:32:00,57.5,41.9,30.09,WSW,248,0.0,2.0,56,0.00,,,0.00,Wunderground v.1.15,2013-04-15 00:32:00,
2013-04-14 20:37:00,57.4,43.2,30.09,WSW,248,2.0,5.0,59,0.00,,,0.00,Wunderground v.1.15,2013-04-15 00:37:00,
2013-04-14 20:42:00,57.2,42.1,30.09,WSW,248,1.0,1.0,57,0.00,,,0.00,Wunderground v.1.15,2013-04-15 00:42:00,
2013-04-14 20:47:00,57.2,42.1,30.09,WSW,246,0.0,4.0,57,0.00,,,0.00,Wunderground v.1.15,2013-04-15 00:47:00,
2013-04-14 20:52:00,57.1,42.5,30.09,WSW,246,0.0,1.0,58,0.00,,,0.00,Wunderground v.1.15,2013-04-15 00:52:00,
2013-04-14 20:57:00,56.9,42.3,30.10,WSW,246,0.0,3.0,58,0.00,,,0.00,Wunderground v.1.15,2013-04-15 00:57:00,
2013-04-14 21:02:00,56.7,43.0,30.09,WSW,246,0.0,0.0,60,0.00,,,0.00,Wunderground v.1.15,2013-04-15 01:02:00,
2013-04-14 21:07:00,56.4,41.8,30.09,WSW,246,0.0,1.0,58,0.00,,,0.00,Wunderground v.1.15,2013-04-15 01:07:00,
2013-04-14 21:12:00,56.0,42.7,30.10,WSW,246,2.0,2.0,61,0.00,,,0.00,Wunderground v.1.15,2013-04-15 01:12:00,
2013-04-14 21:17:00,55.6,42.8,30.10,WSW,246,0.0,2.0,62,0.00,,,0.00,Wunderground v.1.15,2013-04-15 01:17:00,
2013-04-14 21:22:00,55.3,42.1,30.10,WSW,246,0.0,0.0,61,0.00,,,0.00,Wunderground v.1.15,2013-04-15 01:22:00,
2013-04-14 21:27:00,55.0,43.0,30.10,WSW,246,0.0,0.0,64,0.00,,,0.00,Wunderground v.1.15,2013-04-15 01:27:00,
2013-04-14 21:32:00,54.7,41.9,30.10,WSW,246,0.0,0.0,62,0.00,,,0.00,Wunderground v.1.15,2013-04-15 01:32:00,
2013-04-14 21:37:00,54.5,42.2,30.10,WSW,246,0.0,1.0,63,0.00,,,0.00,Wunderground v.1.15,2013-04-15 01:37:00,
2013-04-14 21:42:00,54.3,42.4,30.11,WSW,246,0.0,2.0,64,0.00,,,0.00,Wunderground v.1.15,2013-04-15 01:42:00,
2013-04-14 21:47:00,54.4,41.2,30.10,WSW,246,1.0,3.0,61,0.00,,,0.00,Wunderground v.1.15,2013-04-15 01:47:00,
2013-04-14 21:52:00,55.2,41.1,30.10,WSW,245,0.0,4.0,59,0.00,,,0.00,Wunderground v.1.15,2013-04-15 01:52:00,
2013-04-14 21:57:00,56.2,41.2,30.10,WSW,242,1.0,6.0,57,0.00,,,0.00,Wunderground v.1.15,2013-04-15 01:57:00,
2013-04-14 22:02:00,56.8,41.3,30.10,WSW,238,0.0,3.0,56,0.00,,,0.00,Wunderground v.1.15,2013-04-15 02:02:00,
2013-04-14 22:07:00,57.4,41.4,30.10,SW,215,3.0,7.0,55,0.00,,,0.00,Wunderground v.1.15,2013-04-15 02:07:00,
2013-04-14 22:12:00,57.7,41.6,30.10,SSW,209,0.0,6.0,55,0.00,,,0.00,Wunderground v.1.15,2013-04-15 02:12:00,
2013-04-14 22:18:00,57.9,41.3,30.10,SSW,207,1.0,6.0,54,0.00,,,0.00,Wunderground v.1.15,2013-04-15 02:18:00,
2013-04-14 22:23:00,57.9,41.3,30.09,SSW,195,1.0,4.0,54,0.00,,,0.00,Wunderground v.1.15,2013-04-15 02:23:00,
2013-04-14 22:28:00,58.0,41.4,30.09,SSW,193,1.0,7.0,54,0.00,,,0.00,Wunderground v.1.15,2013-04-15 02:28:00,
2013-04-14 22:33:00,58.0,41.4,30.09,South,182,0.0,3.0,54,0.00,,,0.00,Wunderground v.1.15,2013-04-15 02:33:00,
2013-04-14 22:38:00,58.0,41.4,30.08,South,177,2.0,7.0,54,0.00,,,0.00,Wunderground v.1.15,2013-04-15 02:38:00,
2013-04-14 22:43:00,58.1,41.5,30.08,East,92,3.0,13.0,54,0.00,,,0.00,Wunderground v.1.15,2013-04-15 02:43:00,
2013-04-14 22:48:00,58.0,41.4,30.09,ESE,113,6.0,13.0,54,0.00,,,0.00,Wunderground v.1.15,2013-04-15 02:48:00,
2013-04-14 22:53:00,58.0,41.4,30.08,East,88,3.0,9.0,54,0.00,,,0.00,Wunderground v.1.15,2013-04-15 02:53:00,
2013-04-14 22:58:00,57.8,41.7,30.09,East,98,0.0,10.0,55,0.00,,,0.00,Wunderground v.1.15,2013-04-15 02:58:00,
2013-04-14 23:03:00,57.7,42.1,30.09,East,98,3.0,3.0,56,0.00,,,0.00,Wunderground v.1.15,2013-04-15 03:03:00,
2013-04-14 23:08:00,57.4,43.2,30.09,East,98,1.0,5.0,59,0.00,,,0.00,Wunderground v.1.15,2013-04-15 03:08:00,
2013-04-14 23:13:00,57.0,41.4,30.10,East,98,2.0,4.0,56,0.00,,,0.00,Wunderground v.1.15,2013-04-15 03:13:00,
2013-04-14 23:18:00,56.9,42.3,30.10,East,98,3.0,4.0,58,0.00,,,0.00,Wunderground v.1.15,2013-04-15 03:18:00,
2013-04-14 23:23:00,56.7,41.6,30.10,East,98,0.0,3.0,57,0.00,,,0.00,Wunderground v.1.15,2013-04-15 03:23:00,
2013-04-14 23:28:00,56.5,42.3,30.10,East,92,4.0,7.0,59,0.00,,,0.00,Wunderground v.1.15,2013-04-15 03:28:00,
2013-04-14 23:33:00,56.6,42.0,30.10,East,92,2.0,2.0,58,0.00,,,0.00,Wunderground v.1.15,2013-04-15 03:33:00,
2013-04-14 23:38:00,56.6,42.4,30.11,East,92,1.0,3.0,59,0.00,,,0.00,Wunderground v.1.15,2013-04-15 03:38:00,
2013-04-14 23:43:00,56.4,42.2,30.10,East,92,0.0,3.0,59,0.00,,,0.00,Wunderground v.1.15,2013-04-15 03:43:00,
2013-04-14 23:48:00,56.3,43.0,30.11,East,92,3.0,3.0,61,0.00,,,0.00,Wunderground v.1.15,2013-04-15 03:48:00,
2013-04-14 23:53:00,56.0,42.7,30.11,East,92,0.0,1.0,61,0.00,,,0.00,Wunderground v.1.15,2013-04-15 03:53:00,
2013-04-14 23:58:00,55.6,41.9,30.11,East,92,0.0,1.0,60,0.00,,,0.00,Wunderground v.1.15,2013-04-15 03:58:00,